RH
83 82 81 84 96 98 97 98 97 93 92 85 92 96 99 98 98 98 98 98 99 97
94 94 94 94 93 92 92 88 92 94 95 95 96 98 98 99 98 99 99 99 98 98
91 90 90 92 92 91 91 89 90 91 90 91 93 92 94 95 95 96 97 96 96 95
86 83 82 83 83 83 84 87 87 84 85 88 85 90 93 89 88 90 90 90 90 91
76 75 80 78 77 70 70 74 80 75 76 76 82 82 80 85 82 84 88 88 88 86
85 82 74 73 74 74 72 64 57 58 64 67 70 72 75 69 66 68 74 78 81 80
88 88 83 78 69 72 73 74 70 63 62 66 68 70 67 75 76 75 78 78 74 73
74 80 83 82 76 72 68 72 74 76 76 73 70 70 72 74 79 80 79 76 70 76
72 72 79 80 80 82 82 74 78 83 83 86 79 82 77 73 77 73 71 72 73 66
60 71 72 73 73 74 80 80 81 75 80 75 70 72 76 67 73 74 71 67 65 54
60 61 63 67 69 69 70 75 78 83 82 73 62 65 65 66 73 73 70 66 62 61
61 66 69 72 73 74 74 74 74 70 70 72 64 62 65 69 74 72 73 64 62 63
63 66 70 74 74 73 71 68 70 65 67 56 63 59 63 65 71 76 72 68 67 66
60 62 65 70 75 73 70 69 70 64 63 60 60 62 60 62 62 72 72 77 78 75
Wind_Speed
5 2 2 3 3 3 4 5 7 9 8 10 11 8 7 6 7 6 8 8 5 4
10 10 7 7 6 5 5 5 7 8 9 8 7 4 2 2 7 4 2 4 1 0
11 10 8 7 9 8 8 7 7 9 10 9 10 10 8 7 8 9 7 8 10 6
12 11 10 10 10 9 8 8 9 10 10 9 12 11 9 10 10 11 10 9 9 9
13 12 12 12 11 10 8 10 10 10 11 12 11 11 11 12 10 11 11 11 8 10
11 11 13 12 12 12 11 11 10 13 13 11 11 11 11 10 10 11 9 8 10 9
8 8 8 9 11 10 10 10 11 10 10 10 11 11 10 8 8 8 8 9 9 7
4 5 6 7 8 8 8 8 9 8 9 9 9 8 8 7 7 6 7 6 7 8
4 4 4 5 5 6 7 7 6 7 8 8 7 12 10 8 6 6 7 6 7 5
4 3 3 3 4 4 4 4 5 5 4 4 4 11 10 10 3 3 3 4 3 3
4 3 3 4 4 5 3 4 3 3 4 5 6 13 13 13 6 6 6 6 3 3
4 4 4 4 3 3 3 3 3 3 4 4 4 11 12 10 6 6 6 6 5 3
3 4 4 4 3 2 1 1 2 1 1 3 3 8 10 7 3 4 3 5 5 12
3 4 3 3 3 3 3 3 4 4 4 4 3 5 9 10 3 3 3 3 3 4
Wind_Direction
352 300 305 353 15 26 11 339 323 295 278 258 229 207 198 219 229 221 198 203 184 203
37 44 44 47 49 36 22 6 7 15 28 12 9 319 239 75 279 181 271 126 70 338
28 31 35 42 39 35 19 29 41 46 33 34 39 37 48 46 29 58 45 40 52 37
29 31 33 36 32 36 23 27 48 58 61 48 48 45 39 62 70 58 60 50 57 54
26 30 33 31 26 26 28 44 36 55 52 47 41 30 61 56 52 62 55 53 57 48
30 28 24 23 22 23 19 31 31 48 49 47 46 37 38 46 52 59 54 56 58 43
35 30 29 25 21 22 23 27 30 37 47 48 44 38 29 34 42 56 58 52 46 33
56 45 41 38 27 23 19 31 33 31 39 38 46 31 26 30 39 45 61 63 63 57
66 47 46 48 46 46 27 25 43 38 45 40 45 31 34 47 55 46 53 58 49 48
49 70 35 29 26 25 48 39 19 33 85 65 55 45 43 42 49 62 62 60 91 70
32 47 62 61 46 33 30 32 52 51 37 32 38 33 33 35 21 38 32 24 62 99
29 39 40 40 40 28 49 37 24 28 46 66 32 43 42 40 32 25 15 8 6 26
32 56 37 1 359 341 354 340 333 345 213 93 69 46 42 46 40 17 9 358 6 10
77 102 62 359 335 336 342 6 13 30 49 75 94 27 31 15 23 360 20 360 346 335